Location: Albuquerque Trailhead
(34.7934°N, 106.3736°W)
Time: 00:58:54
(UTC+00:00)

Cosmos 1515 Rocket - Pass Details

Date: 20 June 2021
Orbit: 607 x 629 km, 82.5° (Epoch: 27 July)

Event Time Altitude Azimuth Distance (km) Brightness Sun altitude
Rises 11:04:55 0° 341° (NNW) 2,907 7.2 -9.0°
Reaches altitude 10° 11:07:21 10° 330° (NNW) 2,000 6.3 -8.6°
Maximum altitude 11:11:12 30° 270° (W) 1,132 4.5 -7.9°
Drops below altitude 10° 11:15:03 10° 209° (SSW) 1,996 5.6 -7.3°
Enters shadow 11:16:27 - 202° (SSW) 2,510 6.2 -7.1°
